Regional Weather Roundup
Issued by NWS Charleston, SC

Current Version | Previous Version | Graphics & Text | Print | Product List | Glossary On
Versions: 1 2 3 4 5 6 7 8 9 10 11 12 13 14 15 16 17 18 19 20 21 22 23 24 25 26 27 28 29 30 31 32 33 34 35 36 37 38 39 40 41 42 43 44 45 46 47 48 49 50
000
ASUS42 KCHS 261028
RWRCHS

REGIONAL WEATHER ROUNDUP
NATIONAL WEATHER SERVICE CHARLESTON SC
600 AM EDT MON SEP 26 2016

NOTE: "FAIR" INDICATES FEW OR NO CLOUDS BELOW 12,000 FEET WITH NO
SIGNIFICANT WEATHER AND/OR OBSTRUCTIONS TO VISIBILITY.

NOT ALL STATIONS ARE QUALITY CONTROLLED. USE DATA WITH CAUTION...
ESPECIALLY DEWPOINT OBSERVATIONS.

SCZ027-030-031-034>040-042>050-261100-
...SOUTHEAST SOUTH CAROLINA...

CITY           SKY/WX    TMP DP  RH WIND       PRES   REMARKS
N CHARLESTON   MOCLDY    74  71  91 NE6       30.03F
WATERFRONT PRK   N/A     80  75  84 E12       30.01F
MOUNT PLEASANT PTSUNNY   75  73  94 CALM      30.03S
JOHNS ISLAND   FAIR      79  73  83 E7        30.02F
PINOPOLIS        N/A     73  73 100 E6        29.97F
MONCKS CORNER  FAIR      70  68  94 CALM      30.05S FOG
SUMMERVILLE    CLOUDY    72  72 100 CALM      30.05F
BEAUFORT MCAS  CLOUDY    75  73  93 NE7       30.03S
BEAUFORT ARPT  PTSUNNY   77  73  88 E8        30.02S
HILTON HEAD IS NOT AVBL
WALTERBORO     PTSUNNY   73  73 100 NE5       30.05F
ALLENDALE      PTSUNNY   72  72 100 CALM      30.05S FOG

...SOUTHERN MIDLANDS AND PEE DEE...

CITY           SKY/WX    TMP DP  RH WIND       PRES   REMARKS
GEORGETOWN     PTSUNNY   72  70  94 CALM      30.06S
KINGSTREE      FAIR      68  64  88 CALM      30.07S
ORANGEBURG     MOCLDY    72  71  97 NE6       30.07R FOG
BARNWELL       NOT AVBL
AIKEN          FOG       68  68 100 CALM      30.11S VSB 3/4
MANNING        CLOUDY    70  68  94 NE3       30.07S FOG
COLUMBIA       CLOUDY    74  71  91 E5        30.07S FOG
SUMTER         PTCLDY    70  68  94 NE6       30.06S
FLORENCE       CLEAR     69  66  90 NE6       30.09S
MYRTLE BEACH   CLEAR     70  61  73 NE8       30.09S
N MYRTLE BEACH PTCLDY    68  65  90 NE5       30.07S

$$

GAZ063-065-086>088-099>101-113>116-118-119-134>141-150-261100-
...SOUTHEAST GEORGIA...

CITY           SKY/WX    TMP DP  RH WIND       PRES   REMARKS
SAVANNAH ARPT  CLOUDY    75  72  90 NE7       30.02S
HUNTER AAF     LGT RAIN  75  75 100 E8        29.99S
FORT STEWART   MOCLDY    73  71  94 N3        30.00R
STATESBORO     CLOUDY    73  73  99 CALM      30.04S FOG
SYLVANIA       NOT AVBL
CLAXTON        FAIR      69  69 100 CALM      30.04R

...CSRA...CENTRAL AND FAR SOUTHEAST GEORGIA...

CITY           SKY/WX    TMP DP  RH WIND       PRES   REMARKS
THOMSON        PTCLDY    68  68 100 CALM      30.13R
AUGUSTA-BUSH   PTCLDY    66  65  96 N3        30.06R
AUGUSTA-DANIEL MOCLDY    73  69  87 NE3       30.08R
SWAINSBORO     CLOUDY    70  70 100 NE3       30.06S FOG
VIDALIA        CLOUDY    72  72 100 CALM      30.05R FOG
EASTMAN        CLOUDY    69  69 100 CALM      30.08S
HAZLEHURST     CLOUDY    72  72 100 S3        30.03S FOG
ALMA           PTCLDY    71  71 100 N3        30.02S FOG
WAYCROSS       MOCLDY    73  73 100 N3        30.02R FOG
JESUP          RAIN      73  73 100 E3        30.02R
BAXLEY         FOG       72  72 100 CALM      30.03R VSB 3/4
BRUNSWICK      CLOUDY    73  73 100 CALM      30.00S
SAINT SIMONS   MOCLDY    79  71  76 E6        29.98S

$$

SCZ027-028-034-036>038-045-046-048>050-GAZ119-141-261100-
...LAKE AND SUPPLEMENTAL COASTAL OBSERVATIONS...

STATION/POSITION TIME  TEMP    WIND        PRES    WAVE   SWELL
                       AIR SEA DIR/SP/G            HT/PER HT/PER/DIR
                 (UTC) (F)     (DEG/KT/KT) (MB)    (FT/S) (FT/S/D)
WINYAH BAY       0930   79      80/  9     1017.0S
LAKE MURRAY      1020   74      40/  1/  6 1018.3
ACE BASIN NERRS  0945   75      20/  1     1017.0S
FORT PULASKI     1000   80 81   80/ 12/ 13 1016.7
SAPELO ISLAND    1000   77      40/  2     1016.0

$$

ANZ835-935-AMZ111-154-330-350-352-354-370-450-454-472-261100-
...C-MAN AND BUOY OBSERVATIONS...

STATION/POSITION TIME  TEMP    WIND        PRES    WAVE   SWELL
                       AIR SEA DIR/SP/G            HT/PER HT/PER/DIR
                 (UTC) (F)     (DEG/KT/KT) (MB)    (FT/S) (FT/S/D)
BUOY 41004       0950   79 82   70/ 10/ 12 1015.8F   5/ 6   5/ 70/ 6
BUOY 41008       0950   81 82   80/ 14/ 16 1014.7S   4/10   2/130/10
FOLLY BEACH CMAN 1000   79      80/ 14/ 16 1016.6F
CAPERS NEARSHORE 0908   80 81  100/ 16/ 21 1016.7F
FRIPP NEARSHORE  1008   79 81  100/ 10/ 16 1016.6R


STATION/POSITION TIME  TEMP    WIND        PRES    WAVE   SWELL
                       AIR SEA DIR/SP/G            HT/PER HT/PER/DIR
                 (UTC) (F)     (DEG/KT/KT) (MB)    (FT/S) (FT/S/D)
5E ST. MARYS GA  0901      82                N/A     4/ 5   2/110/11
FRYING PAN BUOY  1010   80 82   50/ 12/ 16 1017.0
BUOY 41025       0950   74 83   40/ 14/ 16 1018.8S   3/ 9   3/100/ 9
CAPE LOOKOUT NC  1000   71      20/ 11/ 15 1018.9F
BUOY 41002       0950   81 84   50/ 10/ 12 1016.5R   4/ 9   5/ 60/ 9
BUOY 41010       NOT AVBL
ST AUGUSTINE FL  1000   74 83  260/  5/  6 1015.6R


$$



USA.gov is the U.S. government's official web portal to all federal, state and local government web resources and services.